contact:dominique.lefevre@mio.osupytheas.fr, maurice.libes@osupytheas.fr, didier.mallarino@osupytheas.fr
Project:EMSO http://www.emso-fr.org/EMSO-France
Depth: 2436.0 m
Title:EMSO Ligure Ouest : Data MII capteur AQUADOPP
Date,Latitude,Longitude,X_East,Y_North,Z_Up,Amplitude_X,Amplitude_Y,Amplitude_Z,Batterie,SoundSpeed,Heading,Pitch,Roll,Pressure,TIS,Speed,Direction
, degrees North, degrees East, m.s-1, m.s-1,m.s-1, 1, 1, 1, Volt, m.s-1, degree, degree, degree, dbar, degree_C, m.s-1, degree
2019-12-29T00:04:03,42.805,6.029,0.08,-0.041,0.018,110.0,108.0,105.0,13.4,1505.2,328.5,-0.7,1.8,2470.298,13.3,0.089,117.1
2019-12-29T00:07:03,42.805,6.029,0.093,-0.041,-0.003,109.0,108.0,105.0,13.4,1505.3,326.3,-0.7,1.9,2470.305,13.31,0.101,113.8
2019-12-29T00:10:03,42.805,6.029,0.079,-0.056,-0.005,109.0,108.0,105.0,13.4,1505.3,327.2,-0.7,1.8,2470.327,13.31,0.096,125.3
2019-12-29T00:13:03,42.805,6.029,0.087,-0.061,0.0,108.0,107.0,104.0,13.4,1505.3,325.9,-0.7,1.8,2470.244,13.31,0.106,125.0
2019-12-29T00:16:03,42.805,6.029,0.077,-0.052,-0.037,108.0,109.0,104.0,13.4,1505.3,326.6,-0.7,1.8,2470.287,13.32,0.092,124.0
2019-12-29T00:19:03,42.805,6.029,0.071,-0.061,-0.002,109.0,109.0,105.0,13.4,1505.3,326.6,-0.7,1.8,2470.258,13.32,0.093,130.7
2019-12-29T00:22:03,42.805,6.029,0.071,-0.06,0.0,109.0,108.0,104.0,13.4,1505.3,323.7,-0.7,1.9,2470.238,13.32,0.092,130.2
2019-12-29T00:25:03,42.805,6.029,0.088,-0.044,-0.004,107.0,108.0,106.0,13.4,1505.3,325.1,-0.7,1.8,2470.255,13.32,0.098,116.6
2019-12-29T00:28:03,42.805,6.029,0.078,-0.038,0.014,110.0,108.0,104.0,13.4,1505.3,325.5,-0.7,1.8,2470.209,13.32,0.086,116.0
2019-12-29T00:31:03,42.805,6.029,0.087,-0.06,-0.003,111.0,108.0,104.0,13.3,1505.3,327.2,-0.7,1.8,2470.22,13.32,0.105,124.6
2019-12-29T00:34:03,42.805,6.029,0.068,-0.059,-0.007,110.0,108.0,106.0,13.3,1505.3,326.1,-0.7,1.8,2470.236,13.32,0.09,130.9
2019-12-29T00:37:03,42.805,6.029,0.086,-0.051,0.015,109.0,108.0,105.0,13.4,1505.3,325.9,-0.7,1.9,2470.22,13.32,0.099,120.7
2019-12-29T00:40:03,42.805,6.029,0.085,-0.054,0.0,108.0,108.0,105.0,13.3,1505.3,326.5,-0.7,1.9,2470.262,13.32,0.1,122.4
2019-12-29T00:43:03,42.805,6.029,0.069,-0.062,-0.018,109.0,108.0,105.0,13.3,1505.3,328.2,-0.7,1.8,2470.235,13.32,0.092,131.9
2019-12-29T00:46:03,42.805,6.029,0.084,-0.086,0.012,110.0,108.0,106.0,13.3,1505.3,324.4,-0.7,1.8,2470.219,13.32,0.12,135.7
2019-12-29T00:49:03,42.805,6.029,0.091,-0.07,0.0,108.0,108.0,106.0,13.3,1505.3,326.5,-0.7,1.9,2470.243,13.32,0.114,127.6
2019-12-29T00:52:03,42.805,6.029,0.07,-0.07,0.009,109.0,109.0,106.0,13.4,1505.3,327.2,-0.7,1.8,2470.209,13.32,0.098,135.0
2019-12-29T00:55:03,42.805,6.029,0.067,-0.073,-0.02,109.0,109.0,105.0,13.4,1505.3,326.3,-0.7,1.9,2470.216,13.32,0.099,137.5
2019-12-29T00:58:03,42.805,6.029,0.067,-0.051,0.012,108.0,107.0,106.0,13.4,1505.3,325.3,-0.7,1.8,2470.202,13.32,0.084,127.3
2019-12-29T01:04:03,42.805,6.029,0.065,-0.073,-0.02,111.0,110.0,106.0,13.3,1505.2,326.4,-0.8,1.8,2470.264,13.3,0.097,138.3
2019-12-29T01:07:03,42.805,6.029,0.09,-0.054,-0.009,109.0,109.0,106.0,13.4,1505.3,324.5,-0.7,1.8,2470.243,13.31,0.104,121.0
2019-12-29T01:10:03,42.805,6.029,0.073,-0.059,-0.02,110.0,109.0,105.0,13.3,1505.3,324.9,-0.7,1.8,2470.28,13.31,0.093,128.9
2019-12-29T01:13:03,42.805,6.029,0.076,-0.048,-0.01,110.0,110.0,106.0,13.3,1505.3,323.5,-0.7,1.8,2470.261,13.31,0.089,122.3
2019-12-29T01:16:03,42.805,6.029,0.062,-0.044,-0.025,110.0,109.0,105.0,13.4,1505.3,325.4,-0.7,1.8,2470.217,13.32,0.076,125.4
2019-12-29T01:19:03,42.805,6.029,0.064,-0.052,-0.016,111.0,110.0,106.0,13.3,1505.3,324.4,-0.7,1.8,2470.213,13.32,0.082,129.1
2019-12-29T01:22:03,42.805,6.029,0.072,-0.063,0.013,109.0,109.0,106.0,13.3,1505.3,324.2,-0.7,1.8,2470.192,13.32,0.095,131.2
2019-12-29T01:25:03,42.805,6.029,0.062,-0.062,-0.005,111.0,109.0,105.0,13.3,1505.3,326.9,-0.7,1.8,2470.182,13.32,0.087,135.0
2019-12-29T01:28:03,42.805,6.029,0.08,-0.074,-0.001,109.0,109.0,106.0,13.4,1505.3,326.9,-0.7,1.8,2470.228,13.32,0.108,132.8
2019-12-29T01:31:03,42.805,6.029,0.052,-0.058,0.026,110.0,110.0,105.0,13.3,1505.3,327.3,-0.7,1.8,2470.181,13.32,0.077,138.1
2019-12-29T01:34:03,42.805,6.029,0.063,-0.083,-0.01,109.0,109.0,105.0,13.4,1505.3,328.2,-0.7,1.8,2470.251,13.32,0.104,142.8
2019-12-29T01:37:03,42.805,6.029,0.078,-0.045,-0.006,110.0,110.0,105.0,13.4,1505.3,326.1,-0.7,1.8,2470.251,13.32,0.09,120.0
2019-12-29T01:40:03,42.805,6.029,0.053,-0.073,-0.014,109.0,110.0,105.0,13.4,1505.3,325.9,-0.7,1.8,2470.238,13.32,0.09,144.0
2019-12-29T01:43:03,42.805,6.029,0.088,-0.066,0.021,109.0,109.0,105.0,13.4,1505.3,324.0,-0.7,1.8,2470.224,13.32,0.11,126.9
2019-12-29T01:46:03,42.805,6.029,0.083,-0.083,-0.014,109.0,108.0,105.0,13.4,1505.3,326.5,-0.7,1.8,2470.242,13.32,0.117,135.0
2019-12-29T01:49:03,42.805,6.029,0.059,-0.086,0.0,110.0,109.0,104.0,13.3,1505.3,328.3,-0.7,1.8,2470.199,13.32,0.104,145.5
2019-12-29T01:52:03,42.805,6.029,0.064,-0.078,-0.005,110.0,109.0,106.0,13.4,1505.3,323.8,-0.7,1.9,2470.203,13.32,0.1,140.6
2019-12-29T01:55:03,42.805,6.029,0.057,-0.073,-0.026,109.0,108.0,106.0,13.4,1505.3,326.1,-0.7,1.9,2470.204,13.32,0.092,142.0
2019-12-29T01:58:03,42.805,6.029,0.059,-0.065,0.002,109.0,108.0,106.0,13.4,1505.3,326.3,-0.7,1.8,2470.192,13.32,0.087,137.8
2019-12-29T02:04:03,42.805,6.029,0.075,-0.059,0.018,109.0,107.0,105.0,13.4,1505.2,324.9,-0.7,1.8,2470.229,13.3,0.095,128.2
2019-12-29T02:07:03,42.805,6.029,0.058,-0.081,-0.017,109.0,108.0,106.0,13.4,1505.3,326.1,-0.8,1.8,2470.253,13.31,0.099,144.4
2019-12-29T02:10:03,42.805,6.029,0.06,-0.065,-0.009,109.0,108.0,107.0,13.3,1505.3,326.8,-0.7,1.8,2470.18,13.31,0.088,137.3
2019-12-29T02:13:03,42.805,6.029,0.077,-0.078,0.002,108.0,109.0,106.0,13.4,1505.3,325.5,-0.7,1.8,2470.213,13.31,0.109,135.4
2019-12-29T02:16:03,42.805,6.029,0.037,-0.083,-0.029,109.0,108.0,106.0,13.4,1505.3,327.8,-0.7,1.8,2470.208,13.32,0.09,156.0
2019-12-29T02:19:03,42.805,6.029,0.057,-0.059,-0.024,109.0,109.0,105.0,13.4,1505.3,325.0,-0.7,1.9,2470.205,13.32,0.082,136.0
2019-12-29T02:22:03,42.805,6.029,0.065,-0.072,-0.015,109.0,107.0,105.0,13.3,1505.3,323.8,-0.7,1.8,2470.229,13.32,0.097,137.9
2019-12-29T02:25:03,42.805,6.029,0.073,-0.08,0.0,108.0,107.0,104.0,13.4,1505.3,326.7,-0.7,1.9,2470.235,13.32,0.108,137.6
2019-12-29T02:28:03,42.805,6.029,0.051,-0.072,-0.042,109.0,108.0,106.0,13.4,1505.3,324.9,-0.7,1.9,2470.219,13.32,0.088,144.7
2019-12-29T02:31:03,42.805,6.029,0.05,-0.059,-0.009,108.0,107.0,105.0,13.4,1505.3,324.0,-0.8,1.8,2470.188,13.32,0.077,139.7
2019-12-29T02:34:03,42.805,6.029,0.057,-0.052,-0.017,110.0,107.0,105.0,13.4,1505.3,325.6,-0.8,1.8,2470.191,13.32,0.077,132.4
2019-12-29T02:37:03,42.805,6.029,0.064,-0.061,-0.018,110.0,107.0,104.0,13.3,1505.3,328.1,-0.7,1.8,2470.186,13.32,0.088,133.6
2019-12-29T02:40:03,42.805,6.029,0.084,-0.068,-0.031,107.0,108.0,105.0,13.4,1505.3,327.9,-0.7,1.8,2470.209,13.32,0.108,129.0
2019-12-29T02:43:03,42.805,6.029,0.074,-0.064,0.018,109.0,108.0,105.0,13.4,1505.3,324.5,-0.7,1.8,2470.176,13.32,0.097,130.9
2019-12-29T02:46:03,42.805,6.029,0.053,-0.067,-0.03,108.0,108.0,105.0,13.4,1505.3,326.1,-0.7,1.8,2470.191,13.32,0.085,141.7
2019-12-29T02:49:03,42.805,6.029,0.061,-0.062,-0.017,110.0,108.0,105.0,13.3,1505.3,325.4,-0.7,1.8,2470.197,13.32,0.086,135.5
2019-12-29T02:52:03,42.805,6.029,0.046,-0.066,0.014,108.0,108.0,105.0,13.3,1505.3,325.3,-0.7,1.8,2470.185,13.32,0.08,145.1
2019-12-29T02:55:03,42.805,6.029,0.064,-0.065,-0.02,109.0,108.0,105.0,13.4,1505.3,325.0,-0.7,1.8,2470.228,13.32,0.091,135.4
2019-12-29T02:58:03,42.805,6.029,0.064,-0.084,-0.01,108.0,109.0,105.0,13.4,1505.3,328.2,-0.7,1.9,2470.219,13.32,0.105,142.7
2019-12-29T03:04:03,42.805,6.029,0.073,-0.089,-0.022,109.0,110.0,105.0,13.3,1505.2,326.3,-0.7,1.8,2470.308,13.3,0.115,140.6
2019-12-29T03:07:03,42.805,6.029,0.062,-0.077,0.001,110.0,108.0,105.0,13.3,1505.3,323.0,-0.7,1.8,2470.199,13.31,0.098,141.2
2019-12-29T03:10:03,42.805,6.029,0.043,-0.076,0.004,108.0,109.0,105.0,13.4,1505.3,324.3,-0.7,1.8,2470.184,13.31,0.087,150.5
2019-12-29T03:13:03,42.805,6.029,0.065,-0.061,0.002,109.0,108.0,105.0,13.4,1505.3,327.2,-0.7,1.8,2470.211,13.31,0.089,133.2
2019-12-29T03:16:03,42.805,6.029,0.066,-0.097,-0.002,109.0,108.0,105.0,13.4,1505.3,325.1,-0.7,1.8,2470.196,13.32,0.117,145.8
2019-12-29T03:19:03,42.805,6.029,0.061,-0.077,0.012,109.0,108.0,105.0,13.4,1505.3,328.1,-0.7,1.8,2470.168,13.32,0.098,141.6
2019-12-29T03:22:03,42.805,6.029,0.061,-0.083,-0.024,109.0,107.0,106.0,13.3,1505.3,327.0,-0.7,1.8,2470.228,13.32,0.103,143.7
2019-12-29T03:25:03,42.805,6.029,0.057,-0.074,0.001,108.0,108.0,105.0,13.3,1505.3,328.0,-0.7,1.8,2470.247,13.32,0.093,142.4
2019-12-29T03:28:03,42.805,6.029,0.059,-0.078,-0.017,111.0,109.0,106.0,13.4,1505.3,323.6,-0.7,1.8,2470.207,13.32,0.097,142.9
2019-12-29T03:31:03,42.805,6.029,0.074,-0.103,-0.014,108.0,109.0,105.0,13.4,1505.3,326.2,-0.7,1.8,2470.229,13.32,0.126,144.3
2019-12-29T03:34:03,42.805,6.029,0.069,-0.094,-0.035,110.0,106.0,105.0,13.4,1505.3,326.8,-0.7,1.8,2470.172,13.32,0.116,143.7
2019-12-29T03:37:03,42.805,6.029,0.044,-0.076,-0.022,110.0,109.0,105.0,13.3,1505.3,326.3,-0.7,1.8,2470.213,13.32,0.087,149.9
2019-12-29T03:40:03,42.805,6.029,0.044,-0.072,-0.001,108.0,108.0,105.0,13.4,1505.3,326.2,-0.7,1.9,2470.216,13.32,0.084,148.6
2019-12-29T03:43:03,42.805,6.029,0.041,-0.07,0.006,109.0,110.0,105.0,13.3,1505.3,327.8,-0.7,1.8,2470.243,13.32,0.081,149.6
2019-12-29T03:46:03,42.805,6.029,0.045,-0.044,-0.025,110.0,108.0,105.0,13.3,1505.3,323.2,-0.7,1.8,2470.174,13.32,0.062,134.4
2019-12-29T03:49:03,42.805,6.029,0.054,-0.061,-0.026,110.0,108.0,104.0,13.3,1505.3,326.4,-0.7,1.8,2470.237,13.32,0.081,138.5
2019-12-29T03:52:03,42.805,6.029,0.048,-0.078,0.014,109.0,108.0,105.0,13.4,1505.3,324.8,-0.7,1.8,2470.215,13.32,0.091,148.4
2019-12-29T03:55:03,42.805,6.029,0.044,-0.082,-0.022,109.0,109.0,104.0,13.3,1505.3,326.4,-0.7,1.8,2470.222,13.32,0.093,151.8
2019-12-29T03:58:03,42.805,6.029,0.052,-0.064,0.008,109.0,107.0,105.0,13.3,1505.3,323.7,-0.7,1.8,2470.185,13.32,0.082,140.9
2019-12-29T04:04:03,42.805,6.029,0.045,-0.087,0.0,109.0,110.0,105.0,13.4,1505.2,326.7,-0.7,1.8,2470.232,13.3,0.097,152.6
2019-12-29T04:07:03,42.805,6.029,0.069,-0.074,0.02,109.0,109.0,104.0,13.4,1505.3,325.8,-0.7,1.8,2470.219,13.31,0.101,137.0
2019-12-29T04:10:03,42.805,6.029,0.062,-0.083,-0.007,109.0,108.0,105.0,13.3,1505.3,328.1,-0.7,1.8,2470.213,13.31,0.103,143.2
2019-12-29T04:13:03,42.805,6.029,0.061,-0.093,0.002,110.0,109.0,104.0,13.4,1505.3,327.8,-0.7,1.8,2470.241,13.31,0.111,146.7
2019-12-29T04:16:03,42.805,6.029,0.061,-0.08,-0.01,109.0,107.0,105.0,13.3,1505.3,325.8,-0.7,1.8,2470.256,13.32,0.1,142.7
2019-12-29T04:19:03,42.805,6.029,0.06,-0.073,0.007,109.0,108.0,104.0,13.4,1505.3,323.7,-0.7,1.9,2470.209,13.32,0.094,140.6
2019-12-29T04:22:03,42.805,6.029,0.078,-0.078,0.005,109.0,109.0,103.0,13.3,1505.3,325.8,-0.7,1.8,2470.187,13.32,0.11,135.0
2019-12-29T04:25:03,42.805,6.029,0.032,-0.086,0.0,109.0,110.0,105.0,13.4,1505.3,323.4,-0.7,1.8,2470.236,13.32,0.091,159.6
2019-12-29T04:28:03,42.805,6.029,0.042,-0.102,0.0,110.0,108.0,105.0,13.4,1505.3,326.5,-0.7,1.9,2470.214,13.32,0.11,157.6
2019-12-29T04:31:03,42.805,6.029,0.057,-0.07,-0.015,108.0,107.0,105.0,13.3,1505.3,326.3,-0.7,1.8,2470.207,13.32,0.09,140.8
2019-12-29T04:34:03,42.805,6.029,0.063,-0.06,-0.009,108.0,108.0,106.0,13.4,1505.3,323.8,-0.7,1.8,2470.219,13.32,0.086,133.6
2019-12-29T04:37:03,42.805,6.029,0.057,-0.086,0.0,109.0,108.0,106.0,13.4,1505.3,327.1,-0.7,1.8,2470.193,13.32,0.103,146.5
2019-12-29T04:40:03,42.805,6.029,0.058,-0.087,-0.009,110.0,108.0,103.0,13.4,1505.3,325.6,-0.7,1.8,2470.232,13.32,0.104,146.3
2019-12-29T04:43:03,42.805,6.029,0.039,-0.069,-0.016,109.0,107.0,105.0,13.4,1505.3,328.3,-0.7,1.8,2470.178,13.32,0.079,150.5
2019-12-29T04:46:03,42.805,6.029,0.064,-0.063,-0.032,108.0,109.0,106.0,13.4,1505.3,325.5,-0.7,1.9,2470.214,13.32,0.089,134.6
2019-12-29T04:49:03,42.805,6.029,0.053,-0.104,0.004,109.0,107.0,106.0,13.4,1505.3,324.7,-0.7,1.8,2470.207,13.32,0.116,153.0
2019-12-29T04:52:03,42.805,6.029,0.057,-0.079,0.007,109.0,109.0,105.0,13.4,1505.3,327.3,-0.7,1.8,2470.248,13.32,0.097,144.2
2019-12-29T04:55:03,42.805,6.029,0.05,-0.073,0.007,108.0,108.0,106.0,13.4,1505.3,325.3,-0.7,1.8,2470.238,13.32,0.088,145.6
2019-12-29T04:58:03,42.805,6.029,0.056,-0.056,0.018,110.0,108.0,106.0,13.4,1505.3,324.5,-0.7,1.8,2470.213,13.32,0.079,135.0
2019-12-29T05:04:03,42.805,6.029,0.041,-0.073,0.01,109.0,108.0,105.0,13.4,1505.2,324.7,-0.8,1.8,2470.245,13.3,0.083,150.7
2019-12-29T05:07:03,42.805,6.029,0.077,-0.087,-0.008,108.0,108.0,105.0,13.4,1505.3,326.2,-0.8,1.9,2470.256,13.31,0.116,138.5
2019-12-29T05:10:03,42.805,6.029,0.051,-0.084,-0.01,109.0,108.0,105.0,13.4,1505.3,324.3,-0.7,1.8,2470.257,13.31,0.098,148.7
2019-12-29T05:13:03,42.805,6.029,0.051,-0.072,-0.012,109.0,108.0,105.0,13.4,1505.3,323.8,-0.7,1.9,2470.237,13.31,0.088,144.7
2019-12-29T05:16:03,42.805,6.029,0.059,-0.07,-0.003,110.0,108.0,105.0,13.3,1505.3,324.0,-0.7,1.8,2470.252,13.32,0.091,139.9
2019-12-29T05:19:03,42.805,6.029,0.053,-0.076,-0.035,108.0,108.0,105.0,13.4,1505.3,323.2,-0.7,1.8,2470.268,13.32,0.092,145.1
2019-12-29T05:22:03,42.805,6.029,0.054,-0.08,0.014,110.0,108.0,104.0,13.4,1505.3,323.0,-0.7,1.8,2470.28,13.32,0.096,146.0
2019-12-29T05:25:03,42.805,6.029,0.045,-0.069,-0.029,110.0,108.0,104.0,13.4,1505.3,326.0,-0.7,1.8,2470.228,13.32,0.082,146.9
2019-12-29T05:28:03,42.805,6.029,0.061,-0.073,-0.002,109.0,109.0,106.0,13.3,1505.3,327.7,-0.7,1.8,2470.258,13.32,0.095,140.1
2019-12-29T05:31:03,42.805,6.029,0.048,-0.06,-0.026,109.0,107.0,105.0,13.3,1505.3,325.1,-0.7,1.8,2470.269,13.32,0.076,141.3
2019-12-29T05:34:03,42.805,6.029,0.058,-0.053,-0.031,108.0,109.0,105.0,13.3,1505.3,326.8,-0.7,1.8,2470.313,13.32,0.078,132.4
2019-12-29T05:37:03,42.805,6.029,0.057,-0.069,-0.006,109.0,108.0,104.0,13.4,1505.3,324.7,-0.7,1.8,2470.27,13.32,0.089,140.4
2019-12-29T05:40:03,42.805,6.029,0.063,-0.098,-0.01,109.0,109.0,105.0,13.3,1505.3,326.5,-0.7,1.8,2470.276,13.32,0.116,147.3
2019-12-29T05:43:03,42.805,6.029,0.05,-0.054,-0.021,108.0,108.0,105.0,13.3,1505.3,326.3,-0.7,1.9,2470.257,13.32,0.073,137.2
2019-12-29T05:46:03,42.805,6.029,0.066,-0.061,-0.006,109.0,108.0,105.0,13.4,1505.3,327.8,-0.7,1.8,2470.248,13.32,0.089,132.7
2019-12-29T05:49:03,42.805,6.029,0.056,-0.06,-0.01,108.0,108.0,105.0,13.4,1505.3,325.9,-0.7,1.8,2470.261,13.32,0.082,137.0
2019-12-29T05:52:03,42.805,6.029,0.07,-0.086,-0.018,109.0,108.0,104.0,13.4,1505.3,324.9,-0.7,1.8,2470.266,13.32,0.11,140.9
2019-12-29T05:55:03,42.805,6.029,0.096,-0.084,-0.029,110.0,108.0,105.0,13.4,1505.3,323.9,-0.7,1.8,2470.284,13.32,0.127,131.2
2019-12-29T05:58:03,42.805,6.029,0.045,-0.075,-0.019,110.0,108.0,105.0,13.4,1505.3,325.0,-0.7,1.8,2470.285,13.32,0.087,149.0
2019-12-29T06:04:03,42.805,6.029,0.073,-0.08,-0.025,110.0,108.0,107.0,13.4,1505.2,324.8,-0.8,1.8,2470.287,13.3,0.108,137.6
2019-12-29T06:07:03,42.805,6.029,0.062,-0.057,-0.045,108.0,108.0,106.0,13.4,1505.3,323.9,-0.7,1.8,2470.288,13.31,0.084,132.6
2019-12-29T06:10:03,42.805,6.029,0.075,-0.067,-0.029,108.0,109.0,105.0,13.4,1505.3,328.0,-0.7,1.8,2470.367,13.31,0.1,131.8
2019-12-29T06:13:03,42.805,6.029,0.055,-0.065,-0.022,109.0,109.0,105.0,13.4,1505.3,327.3,-0.7,1.8,2470.29,13.31,0.085,139.8
2019-12-29T06:16:03,42.805,6.029,0.042,-0.074,0.002,111.0,109.0,105.0,13.4,1505.3,328.5,-0.7,1.9,2470.305,13.32,0.085,150.4
2019-12-29T06:19:03,42.805,6.029,0.071,-0.071,-0.004,109.0,108.0,104.0,13.4,1505.3,325.8,-0.7,1.8,2470.307,13.32,0.1,135.0
2019-12-29T06:22:03,42.805,6.029,0.068,-0.061,-0.025,110.0,108.0,104.0,13.3,1505.3,327.4,-0.7,1.8,2470.302,13.32,0.091,131.9
2019-12-29T06:25:03,42.805,6.029,0.05,-0.069,-0.007,109.0,109.0,105.0,13.4,1505.3,323.1,-0.7,1.8,2470.375,13.32,0.085,144.1
2019-12-29T06:28:03,42.805,6.029,0.071,-0.066,-0.005,109.0,108.0,104.0,13.3,1505.3,324.6,-0.7,1.8,2470.348,13.32,0.096,132.9
2019-12-29T06:31:03,42.805,6.029,0.068,-0.086,-0.023,109.0,109.0,105.0,13.4,1505.3,327.6,-0.7,1.8,2470.365,13.32,0.109,141.7
2019-12-29T06:34:03,42.805,6.029,0.064,-0.073,-0.021,109.0,108.0,104.0,13.4,1505.3,327.2,-0.7,1.8,2470.312,13.32,0.097,138.8
2019-12-29T06:37:03,42.805,6.029,0.06,-0.072,0.009,110.0,109.0,105.0,13.4,1505.3,327.3,-0.7,1.9,2470.341,13.32,0.093,140.2
2019-12-29T06:40:03,42.805,6.029,0.083,-0.065,-0.032,109.0,108.0,106.0,13.4,1505.3,325.0,-0.7,1.9,2470.333,13.32,0.105,128.1
2019-12-29T06:43:03,42.805,6.029,0.061,-0.085,-0.004,110.0,109.0,105.0,13.3,1505.3,324.2,-0.7,1.8,2470.352,13.32,0.104,144.3
2019-12-29T06:46:03,42.805,6.029,0.062,-0.06,-0.008,109.0,109.0,105.0,13.3,1505.3,327.4,-0.8,1.8,2470.356,13.32,0.086,134.1
2019-12-29T06:49:03,42.805,6.029,0.057,-0.08,-0.023,110.0,108.0,105.0,13.4,1505.3,323.7,-0.7,1.8,2470.345,13.32,0.098,144.5
2019-12-29T06:52:03,42.805,6.029,0.07,-0.072,-0.019,109.0,109.0,105.0,13.4,1505.3,326.4,-0.7,1.9,2470.358,13.32,0.1,135.8
2019-12-29T06:55:03,42.805,6.029,0.057,-0.082,0.02,109.0,108.0,106.0,13.4,1505.3,325.8,-0.7,1.8,2470.343,13.32,0.099,145.2
2019-12-29T06:58:03,42.805,6.029,0.052,-0.076,0.007,109.0,108.0,105.0,13.4,1505.3,325.1,-0.7,1.9,2470.365,13.32,0.092,145.6
2019-12-29T07:04:03,42.805,6.029,0.059,-0.074,-0.025,109.0,107.0,106.0,13.4,1505.2,327.4,-0.8,1.8,2470.416,13.3,0.094,141.4
2019-12-29T07:07:03,42.805,6.029,0.072,-0.081,-0.019,109.0,109.0,105.0,13.3,1505.3,324.3,-0.7,1.8,2470.375,13.31,0.108,138.4
2019-12-29T07:10:03,42.805,6.029,0.055,-0.095,-0.023,109.0,109.0,105.0,13.4,1505.3,327.5,-0.7,1.8,2470.372,13.31,0.109,149.9
2019-12-29T07:13:03,42.805,6.029,0.049,-0.069,-0.02,110.0,108.0,104.0,13.4,1505.3,324.9,-0.7,1.8,2470.407,13.31,0.084,144.6
2019-12-29T07:16:03,42.805,6.029,0.067,-0.062,0.026,109.0,108.0,104.0,13.4,1505.3,325.9,-0.7,1.8,2470.43,13.32,0.091,132.8
2019-12-29T07:19:03,42.805,6.029,0.043,-0.072,0.013,109.0,109.0,105.0,13.4,1505.3,324.3,-0.7,1.9,2470.414,13.32,0.083,149.2
2019-12-29T07:22:03,42.805,6.029,0.048,-0.078,0.005,110.0,109.0,104.0,13.3,1505.3,327.9,-0.7,1.9,2470.468,13.32,0.091,148.4
2019-12-29T07:25:03,42.805,6.029,0.044,-0.063,-0.02,110.0,110.0,106.0,13.4,1505.3,326.5,-0.7,1.8,2470.384,13.32,0.076,145.1
2019-12-29T07:28:03,42.805,6.029,0.075,-0.079,-0.008,110.0,109.0,106.0,13.3,1505.3,326.3,-0.7,1.9,2470.454,13.32,0.108,136.5
2019-12-29T07:31:03,42.805,6.029,0.063,-0.099,0.004,110.0,107.0,105.0,13.4,1505.3,326.5,-0.7,1.9,2470.371,13.32,0.117,147.5
2019-12-29T07:34:03,42.805,6.029,0.066,-0.058,0.007,110.0,109.0,104.0,13.4,1505.3,325.2,-0.7,1.8,2470.427,13.32,0.087,131.3
2019-12-29T07:37:03,42.805,6.029,0.066,-0.06,-0.002,110.0,108.0,105.0,13.4,1505.3,323.9,-0.7,1.8,2470.386,13.32,0.089,132.3
2019-12-29T07:40:03,42.805,6.029,0.065,-0.069,0.019,110.0,109.0,105.0,13.4,1505.3,327.7,-0.7,1.8,2470.456,13.32,0.094,136.7
2019-12-29T07:43:03,42.805,6.029,0.073,-0.071,0.014,111.0,109.0,105.0,13.4,1505.3,327.3,-0.7,1.9,2470.449,13.32,0.101,134.2
2019-12-29T07:46:03,42.805,6.029,0.046,-0.064,-0.003,109.0,108.0,105.0,13.4,1505.3,326.2,-0.7,1.8,2470.435,13.32,0.078,144.3
2019-12-29T07:49:03,42.805,6.029,0.071,-0.096,-0.001,109.0,109.0,105.0,13.4,1505.3,326.9,-0.7,1.8,2470.421,13.32,0.119,143.5
2019-12-29T07:52:03,42.805,6.029,0.063,-0.055,0.0,110.0,109.0,104.0,13.4,1505.3,323.8,-0.7,1.8,2470.44,13.32,0.083,131.1
2019-12-29T07:55:03,42.805,6.029,0.062,-0.072,-0.017,109.0,108.0,106.0,13.4,1505.3,324.9,-0.7,1.8,2470.406,13.32,0.095,139.3
2019-12-29T07:58:03,42.805,6.029,0.066,-0.081,-0.027,109.0,110.0,105.0,13.4,1505.3,325.0,-0.7,1.8,2470.438,13.32,0.104,140.8
2019-12-29T08:04:03,42.805,6.029,0.036,-0.054,-0.019,110.0,109.0,105.0,13.3,1505.2,323.2,-0.7,1.9,2470.443,13.3,0.064,146.3
2019-12-29T08:07:03,42.805,6.029,0.054,-0.074,-0.009,110.0,110.0,106.0,13.3,1505.3,324.7,-0.7,1.8,2470.469,13.31,0.091,143.9
2019-12-29T08:10:03,42.805,6.029,0.065,-0.077,-0.022,110.0,109.0,106.0,13.4,1505.3,323.9,-0.7,1.8,2470.45,13.31,0.1,139.8
2019-12-29T08:13:03,42.805,6.029,0.055,-0.068,-0.017,110.0,110.0,105.0,13.3,1505.3,328.4,-0.7,1.9,2470.492,13.31,0.087,141.0
2019-12-29T08:16:03,42.805,6.029,0.06,-0.07,-0.009,109.0,109.0,106.0,13.4,1505.3,327.1,-0.7,1.9,2470.458,13.32,0.092,139.4
2019-12-29T08:19:03,42.805,6.029,0.045,-0.08,0.001,110.0,109.0,105.0,13.4,1505.3,327.4,-0.7,1.8,2470.412,13.32,0.091,150.6
2019-12-29T08:22:03,42.805,6.029,0.037,-0.1,-0.009,111.0,110.0,106.0,13.4,1505.3,326.6,-0.7,1.9,2470.425,13.32,0.106,159.7
2019-12-29T08:25:03,42.805,6.029,0.067,-0.084,-0.008,110.0,109.0,106.0,13.4,1505.3,324.7,-0.7,1.8,2470.461,13.32,0.107,141.4
2019-12-29T08:28:03,42.805,6.029,0.042,-0.057,-0.033,109.0,109.0,105.0,13.4,1505.3,325.7,-0.7,1.8,2470.464,13.32,0.07,143.6
2019-12-29T08:31:03,42.805,6.029,0.046,-0.056,-0.017,110.0,109.0,104.0,13.3,1505.3,324.1,-0.7,1.8,2470.444,13.32,0.072,140.6
2019-12-29T08:34:03,42.805,6.029,0.046,-0.086,-0.014,111.0,111.0,105.0,13.3,1505.3,328.3,-0.7,1.8,2470.452,13.32,0.097,151.9
2019-12-29T08:37:03,42.805,6.029,0.065,-0.072,-0.027,109.0,110.0,106.0,13.4,1505.3,324.9,-0.7,1.8,2470.448,13.32,0.097,137.9
2019-12-29T08:40:03,42.805,6.029,0.054,-0.071,0.003,111.0,110.0,106.0,13.4,1505.3,325.3,-0.7,1.8,2470.479,13.32,0.089,142.7
2019-12-29T08:43:03,42.805,6.029,0.055,-0.071,-0.026,110.0,110.0,106.0,13.3,1505.3,328.5,-0.7,1.8,2470.441,13.32,0.089,142.2
2019-12-29T08:46:03,42.805,6.029,0.049,-0.064,-0.011,110.0,112.0,105.0,13.4,1505.3,323.0,-0.7,1.9,2470.481,13.32,0.08,142.6
2019-12-29T08:49:03,42.805,6.029,0.038,-0.063,-0.015,111.0,110.0,108.0,13.3,1505.3,326.9,-0.7,1.9,2470.451,13.32,0.073,148.9
2019-12-29T08:52:03,42.805,6.029,0.046,-0.083,0.035,111.0,111.0,106.0,13.4,1505.3,324.3,-0.7,1.8,2470.467,13.32,0.094,151.0
2019-12-29T08:55:03,42.805,6.029,0.049,-0.09,0.004,110.0,111.0,107.0,13.4,1505.3,327.5,-0.7,1.8,2470.49,13.32,0.102,151.4
2019-12-29T08:58:03,42.805,6.029,0.041,-0.08,-0.007,111.0,110.0,107.0,13.4,1505.3,323.2,-0.7,1.9,2470.448,13.32,0.089,152.9
2019-12-29T09:04:03,42.805,6.029,0.033,-0.08,-0.04,112.0,110.0,107.0,13.3,1505.2,324.6,-0.7,1.8,2470.472,13.3,0.086,157.6
2019-12-29T09:07:03,42.805,6.029,0.042,-0.092,-0.009,112.0,112.0,106.0,13.4,1505.3,323.4,-0.7,1.8,2470.475,13.31,0.101,155.5
2019-12-29T09:10:03,42.805,6.029,0.02,-0.052,-0.023,111.0,111.0,106.0,13.4,1505.3,324.7,-0.7,1.9,2470.518,13.31,0.055,159.0
2019-12-29T09:13:03,42.805,6.029,0.044,-0.07,0.003,113.0,111.0,107.0,13.4,1505.3,327.3,-0.7,1.8,2470.457,13.32,0.082,147.8
2019-12-29T09:16:03,42.805,6.029,0.033,-0.07,0.0,113.0,110.0,107.0,13.4,1505.3,325.2,-0.7,1.8,2470.498,13.32,0.077,154.8
2019-12-29T09:19:03,42.805,6.029,0.043,-0.048,-0.033,112.0,112.0,107.0,13.4,1505.3,325.0,-0.7,1.8,2470.487,13.32,0.064,138.1
2019-12-29T09:22:03,42.805,6.029,0.048,-0.085,0.001,113.0,110.0,107.0,13.3,1505.3,323.3,-0.7,1.8,2470.472,13.32,0.097,150.5
2019-12-29T09:25:03,42.805,6.029,0.026,-0.055,-0.023,113.0,110.0,108.0,13.4,1505.3,325.1,-0.7,1.8,2470.455,13.32,0.06,154.7
2019-12-29T09:28:03,42.805,6.029,0.041,-0.091,-0.002,112.0,110.0,106.0,13.4,1505.3,328.2,-0.7,1.8,2470.475,13.32,0.099,155.7
2019-12-29T09:31:03,42.805,6.029,0.044,-0.059,0.024,112.0,111.0,106.0,13.4,1505.3,326.5,-0.7,1.9,2470.475,13.32,0.073,143.3
2019-12-29T09:34:03,42.805,6.029,0.027,-0.068,0.006,113.0,112.0,107.0,13.4,1505.3,327.1,-0.7,1.8,2470.482,13.32,0.073,158.3
2019-12-29T09:37:03,42.805,6.029,0.046,-0.053,-0.021,111.0,112.0,108.0,13.3,1505.3,328.0,-0.7,1.8,2470.51,13.32,0.07,139.0
2019-12-29T09:40:03,42.805,6.029,0.057,-0.054,-0.008,112.0,112.0,107.0,13.3,1505.3,324.2,-0.7,1.8,2470.496,13.32,0.078,133.5
2019-12-29T09:43:03,42.805,6.029,0.03,-0.078,-0.001,112.0,112.0,108.0,13.4,1505.3,326.4,-0.7,1.9,2470.482,13.32,0.083,159.0
2019-12-29T09:46:03,42.805,6.029,0.038,-0.058,-0.029,113.0,111.0,107.0,13.4,1505.3,323.2,-0.7,1.8,2470.521,13.32,0.069,146.8
2019-12-29T09:49:03,42.805,6.029,0.023,-0.064,-0.011,113.0,112.0,107.0,13.4,1505.3,327.2,-0.7,1.9,2470.524,13.32,0.068,160.2
2019-12-29T09:52:03,42.805,6.029,0.024,-0.078,-0.013,112.0,112.0,108.0,13.4,1505.3,323.1,-0.7,1.8,2470.487,13.32,0.081,162.9
2019-12-29T09:55:03,42.805,6.029,0.022,-0.064,0.009,111.0,112.0,107.0,13.4,1505.3,325.1,-0.7,1.8,2470.514,13.32,0.067,161.0